Home   Weather   Ettlingen   Past weeks

Flag for Germany Past Weather in Ettlingen, Baden-Württemberg, Germany — Yesterday and Last 2 Weeks

Now
63 °F

Sunny.


Feels Like: 63 °F
Forecast: 58 / 72 °F
Wind: 10 mph from Southwest

Location: Karlsruhe - Baden Wurttemberg

Current Time: Sep 29, 2016 at 10:31:28 AM

Latest Report: Sep 29, 2016 at 9:50 AM


Visibility: 10 mi

Pressure: 30.24 "Hg

Humidity: 77%

Dew Point: 55 °F

Location of EttlingenLocation

Past Weather in Ettlingen — Graph

°F

Ettlingen Temperature Yesterday

Maximum temperature yesterday: 73 °F (at 2:50 PM)
Minimum temperature yesterday: 50 °F (at 4:20 AM)
Average temperature yesterday: 62 °F

High & Low Weather Summary for the Past Weeks

 TemperatureHumidityPressure
High88 °F (Sep 14, 4:20 PM)100% (Sep 16, 10:50 PM)30.42 "Hg (Sep 16, 10:50 PM)
Low39 °F (Sep 22, 7:50 AM)31% (Sep 14, 4:50 PM)29.77 "Hg (Sep 15, 4:50 AM)
Average62 °F79%30.10 "Hg
* Reported Sep 14 9:20 AM — Sep 29 9:20 AM, Ettlingen, Weather by CustomWeather, © 2016

Note: Actual official high and low records may vary slightly from our data, if they occured in-between our weather recording intervals... More about our weather records

Advertising

Ettlingen Weather History for the Previous 24 Hours

Scroll right to see more
 ConditionsComfort  
Time TempWeatherWind HumidityBarometerVisibility
9:20 AM
Thu, Sep 29
61 °FSunny.9 mph83%30.24 "Hg10 mi
8:50 AM59 °FSunny.7 mph88%30.24 "Hg10 mi
8:20 AM57 °FSunny.8 mph88%30.24 "Hg10 mi
7:50 AM55 °FSunny.8 mph88%30.24 "Hg10 mi
7:20 AM55 °FClear.6 mph88%30.24 "Hg10 mi
6:50 AM54 °FClear.6 mph88%30.24 "Hg10 mi
6:20 AM55 °FClear.6 mph88%30.24 "Hg10 mi
5:50 AM54 °FClear.6 mph94%30.24 "Hg10 mi
5:20 AM54 °FClear.7 mph88%30.27 "Hg10 mi
4:50 AM54 °FClear.6 mph88%30.27 "Hg10 mi
4:20 AM54 °FClear.6 mph94%30.27 "Hg10 mi
11:20 PM
Wed, Sep 28
57 °FClear.3 mph82%30.33 "Hg10 mi
10:50 PM57 °FClear.2 mph82%30.36 "Hg10 mi
10:20 PM57 °FClear.6 mph88%30.33 "Hg10 mi
9:50 PM59 °FClear.6 mph82%30.36 "Hg10 mi
9:20 PM61 °FClear.6 mph77%30.33 "Hg10 mi
8:50 PM59 °FClear.5 mph82%30.33 "Hg10 mi
8:20 PM61 °FClear.6 mph77%30.33 "Hg10 mi
7:50 PM63 °FClear.6 mph73%30.33 "Hg10 mi
7:20 PM66 °FClear.6 mph64%30.33 "Hg10 mi
6:50 PM68 °FSunny.3 mph60%30.33 "Hg10 mi
6:20 PM70 °FSunny.3 mph57%30.33 "Hg10 mi
5:50 PM72 °FSunny.3 mph50%30.33 "Hg10 mi
5:20 PM73 °FSunny.3 mph47%30.33 "Hg10 mi
4:50 PM73 °FPassing clouds.6 mph47%30.33 "HgN/A
4:20 PM73 °FPassing clouds.6 mph47%30.33 "HgN/A
3:50 PM73 °FPassing clouds.8 mph53%30.33 "HgN/A
3:20 PM73 °FPassing clouds.8 mph53%30.36 "HgN/A
2:50 PM73 °FSunny.9 mph53%30.36 "Hg10 mi
2:20 PM72 °FPassing clouds.8 mph57%30.36 "HgN/A
1:50 PM72 °FPassing clouds.6 mph61%30.39 "HgN/A
1:20 PM70 °FPassing clouds.8 mph64%30.39 "HgN/A
12:50 PM70 °FPassing clouds.7 mph69%30.39 "HgN/A
12:20 PM68 °FPassing clouds.9 mph69%30.39 "HgN/A
11:50 AM66 °FPassing clouds.9 mph73%30.42 "HgN/A
11:20 AM64 °FPassing clouds.9 mph78%30.39 "HgN/A
10:50 AM63 °FSunny.12 mph83%30.39 "Hg10 mi
10:20 AM61 °FPassing clouds.7 mph88%30.39 "HgN/A
Weather by CustomWeather, © 2016

See weather overviewHow to use our weather pages